sat.trackr.live / text

‹ back to catalog

STARLINK-33690

NORAD 63406 · 2025-065H

PAYLOAD ACTIVE UNKNOWN

§ Identity

Operator
Country
US
Launch date
2025-03-31
Launch site
AFETR
Launch vehicle
Mass (kg)
RCS (m²)

Purposes: comms

External: N2YO · Heavens-Above · Gunter

§ Orbital elements

Epoch: 2026-08-06T17:33:23.203584Z

Period
88.93 min
Inclination
42.9974°
Eccentricity
0.0004617
Mean motion
16.19222962 rev/d
Perigee alt
218.6 km
Apogee alt
224.7 km
Semi-major
6,599.8 km
B*
4.3230e-3
RAAN
327.7434°
Arg perigee
317.7932°
Mean anomaly
42.2598°
Rev number
7,591

§ Raw data

STARLINK-336901 63406U 25065H   26218.73151856  .05689119  10108+0  43230-2 0  99942 63406  42.9974 327.7434 0004617 317.7932  42.2598 16.19222962 75918

JSON: /api/v1/satellites/63406 · /tle

For live sub-satellite position, see the globe view (requires WebGL).

§ Visibility from observer

Set your observer location to see the next 7 days of passes ≥ 10°. The values pass through the URL so the page stays shareable.

No JS? Fill the form by hand. The geolocation button needs JavaScript.